DOVO2: Cimarron River, Dover, OK

Data processed at Sat Mar 10 2018 23:48


All information presented herein is the property of the government of the United States of America and may be revised or deleted at any time without prior notice.
Dissemination of this information without the expressed written consent of the Public Affairs Office, Tulsa District U.S. Army Corps of Engineers is strictly prohibited.
These data are gathered electronically and, as presented, have not undergone any form of quality control. These data are not guaranteed to be valid or correct.
Go to home page.
Go to station list.

Upstream stations:

Downstream station:
Previous Day
Next Day
Current Day
    
SHEF ID:       DOVO2     Cimarron River near Dover, OK
STATION TYPE:  

               PRECIP     STAGE  RIV-FLOW  BAT-LOAD
                   in        ft       cfs      volt
              Ccp-Rev   Ccp-Rev   Ccp-Rev   Ccp-Rev
(US/Central)
03/08 00:00      0.00     10.07       117     12.57
03/08 01:00      0.00     10.07       117     12.57
03/08 02:00      0.00     10.07       117     12.49
03/08 03:00      0.00     10.07       117     12.49
03/08 04:00      0.00     10.06       115     12.49
03/08 05:00      0.00     10.07       117     12.41
03/08 06:00      0.00     10.08       119     12.41
03/08 07:00      0.00     10.08       119     12.41
03/08 08:00      0.00     10.09       120     12.57
03/08 09:00      0.00     10.08       119     13.29
03/08 10:00      0.00     10.09       120     13.84
03/08 11:00      0.00     10.10       122     13.84
03/08 12:00      0.00     10.11       124     13.84
03/08 13:00      0.00     10.11       124     13.84
03/08 14:00      0.00     10.11       124     13.84
03/08 15:00      0.00     10.12       126     13.76
03/08 16:00      0.00     10.11       124     13.68
03/08 17:00      0.00     10.09       120     13.68
03/08 18:00      0.00     10.10       122     13.37
03/08 19:00      0.00     10.10       122     13.05
03/08 20:00      0.00     10.09       120     12.73
03/08 21:00      0.00     10.09       120     12.65
03/08 22:00      0.00     10.08       119     12.57
03/08 23:00      0.00     10.08       119     12.57